User: anonymous   Login
Location: Miami, Florida
(25.6830°N, 80.1700°W)
Time: 02:27:44
(UTC-04:00)
Language:

N. Korean satellite - Orbit

View from above orbital plane
View from above orbital plane
View from above satellite
View from above satellite

Ground track
Ground track

The orbit data is extracted from the following two-line orbital elements,

1 39026U 12072A   18052.13437249  .00001639  00000-0  64361-4 0  9994
2 39026  97.2147  66.4523 0040115  17.4090 342.8514 15.26378217287950
Epoch (UTC): 21 February 2018 03:13:29
Eccentricity: 0.0040115
inclination: 97.2147°
perigee height: 459 km
apogee height: 514 km
right ascension of ascending node: 66.4523°
argument of perigee: 17.4090°
revolutions per day: 15.26378217
mean anomaly at epoch: 342.8514°
orbit number at epoch: 28795

The dashed part of the orbit path shows where the satellite is in the earth's shadow,  

DLR